TITAN 3C TRANSTAGE DEB, 26048

Orbit data source: Space-Track

TITAN 3C TRANSTAGE DEB, 26048 is space debris in HEO originally from a launch on Tue, 21 Dec 1965 UTC launched from the Air Force Eastern Test Range (AFETR). Debris objects in space refer to the collection of defunct objects orbiting the Earth. Examples of debris include non-operational satellites, rocket bodies, and fragments generated from explosions, collisions, or faulty payload assembly.

Loading next visibility...
Identifier
26048, 1965-108AG
Orbit
HEO
Country
Flag of USUS
Related business
Manufacturer
Unknown
Mission
Spacecraft
Bus & Motor
Unknown
Mass
Unknown
Launch date (UTC)
1965-12-21 (60 years ago)
Launch vehicle
Unknown
Launch site
Air Force Eastern Test Range (AFETR)
Object type
Payload
Rocket body
Debris
Shape & HBR
Unknown shape, 0.3 m
Radar Cross Section
Medium (>0.1 m² and <1 m²)

Expand to show TLE details & history
Last TLE update: 20 hours ago

TLE from 20 hours ago
0 TITAN 3C TRANSTAGE DEB
1 26048U 65108AG  26133.12272858  .00002039  00000-0  78284-3 0  9996
2 26048  26.3801  98.9860 6253182 143.3719 282.7877  3.64132063331889
Epoch: 2026-05-13T02:56Z
TLE epoch observation values (Epoch: 2026-05-13T02:56:43.749Z)
Latitude
0.00001°
Longitude
-176.08942°
Altitude
15,419.316 km
Speed
3.774 km/s
True Right ascension
06h 35m 55s
True Declination
0° 00' 00"
Sunlit
Object was in daylight at epoch
Visualization orbit readout
Latitude
Unknown
Longitude
Unknown
Altitude
Unknown
Speed
Unknown
Apparent Right ascension
Unknown
Apparent Declination
Unknown
Sunlit
N/A
Visualization observer readout
Local Sidereal Time
06:53:49
Azimuth
Unknown
Elevation
Unknown
Doppler factor
Unknown
Orbital elements
Apogee altitude
22,634.698 km
Perigee altitude
310.142 km
Semi-major axis
17,850.557 km
Eccentricity
0.62532
Inclination
26.3801°
RAAN
98.986°
Arg. of periapsis
143.3719°
True anomaly
216.70152°
Mean anomaly
282.7877°
Eccentric anomaly
249.2775°
Mean motion
0.91005 °/min
Orbital period
395.58 mins
BSTAR
0.00078284
Loading maneuver chart data...
Computing Atmospheric mass density...

Documentation

Showing up to 5 results
|